Wind_Speed
12 13 14 13 13 14 14 14 15 16 16 17 18 18 19 20 20 20 21 22 22 23 24 24 24 25 26 26 26 26 27 28 27 27 28 29 30 31 32 32 33 32 32
12 12 12 11 12 13 13 14 14 14 15 16 17 18 18 19 19 19 20 21 22 22 23 24 24 24 25 25 26 27 28 28 28 27 28 29 30 31 31 32 32 32 31
11 11 10 10 10 10 10 11 12 13 14 15 16 16 16 17 17 18 20 20 21 21 22 23 24 24 24 25 26 27 28 29 29 29 29 30 30 30 30 30 30 30 30
8 8 8 8 8 9 10 11 12 13 14 14 14 14 14 15 16 17 18 19 19 20 21 22 23 23 24 25 26 27 28 29 29 29 29 30 30 30 29 29 29 30 31
6 6 7 7 7 8 9 11 12 12 12 12 12 12 13 14 16 16 17 18 19 20 21 22 23 23 24 24 26 27 29 29 29 29 29 29 29 29 29 30 30 30 31
5 6 6 7 7 8 9 10 11 10 11 11 11 11 13 15 16 16 17 18 19 20 21 22 23 24 24 25 27 29 29 29 29 29 30 29 28 28 29 30 31 31 31
6 6 6 6 7 7 8 9 10 9 10 10 10 12 13 14 16 16 17 18 19 20 21 22 23 24 25 27 28 29 29 29 29 30 29 29 28 29 30 30 31 31 32
6 6 6 6 7 8 9 9 10 10 10 10 11 12 14 15 15 16 17 18 19 21 22 23 24 25 25 27 28 29 29 29 29 29 29 29 30 30 30 30 30 31 31
7 7 7 7 7 8 8 9 9 10 10 11 11 13 14 15 16 16 17 18 19 21 22 24 25 26 27 28 28 29 29 29 30 30 30 30 30 30 30 30 30 30 30
6 7 7 7 7 7 8 8 9 9 10 10 11 13 15 15 16 17 17 18 20 21 23 25 26 27 28 29 29 30 29 30 30 30 30 31 31 31 31 30 29 29 29
7 7 6 6 6 7 7 8 8 9 10 11 12 13 15 15 16 17 18 18 20 21 23 25 27 28 29 30 30 31 31 30 30 30 31 31 31 31 30 29 28 28 28
6 6 6 6 7 7 8 8 8 9 10 12 13 14 15 16 17 18 19 20 21 22 24 26 28 29 30 31 31 31 31 31 30 30 30 30 30 29 29 28 27 27 28
6 6 6 6 7 8 8 8 9 10 11 12 14 15 17 18 18 18 20 21 22 24 25 27 28 30 31 32 32 31 31 30 30 30 30 30 30 29 28 27 26 26 27
6 7 7 7 8 8 9 9 9 10 11 13 14 16 17 18 19 19 20 21 23 24 26 27 29 30 31 32 32 31 31 30 30 30 29 30 29 28 27 27 26 25 25
7 7 7 7 8 8 9 9 10 11 12 13 15 16 17 18 19 20 21 22 24 25 26 28 29 31 32 32 32 32 31 30 30 30 30 29 29 27 26 25 25 25 25
7 7 7 8 8 9 9 10 11 12 13 15 16 18 18 19 20 21 22 23 25 26 28 29 30 31 32 32 32 32 31 31 31 30 30 29 28 27 26 25 24 24 24
8 8 8 9 9 9 10 11 12 13 14 15 16 18 19 20 21 22 23 24 26 27 28 29 31 31 32 32 32 32 32 31 31 31 31 30 29 28 27 27 26 25 25
8 8 9 9 10 10 11 12 13 13 15 16 17 18 19 21 22 23 24 26 27 28 29 30 31 32 32 32 31 32 32 32 32 31 30 29 28 28 28 27 26 25 24
9 9 10 10 11 11 12 13 14 15 15 16 18 19 21 22 23 25 26 27 28 28 29 31 31 32 32 31 31 31 32 32 32 31 30 29 28 27 27 26 26 25 23
9 10 10 11 11 12 13 14 15 16 17 17 18 20 21 23 24 25 26 27 28 28 29 30 31 32 31 30 30 30 30 31 31 30 29 28 27 27 27 26 26 24 22
10 10 11 12 12 13 14 15 16 17 18 18 19 21 22 23 25 26 26 27 27 28 29 30 31 31 30 29 29 29 30 30 31 30 29 28 27 27 27 27 26 25 23
11 11 12 13 13 14 15 15 16 17 19 19 20 21 22 23 24 25 26 27 27 28 29 30 31 30 29 28 28 29 29 30 30 30 30 29 28 27 27 27 27 26 24
12 13 13 14 14 15 15 16 17 18 19 20 20 21 22 23 24 25 26 27 27 28 29 29 30 29 29 28 28 29 29 29 29 29 28 28 28 28 27 26 26 25 25
12 13 14 15 15 16 16 16 17 18 20 21 22 22 23 23 24 25 26 26 27 28 28 29 29 29 29 28 28 28 28 28 28 28 28 27 28 28 27 26 26 26 25
13 14 15 16 16 16 17 17 18 18 20 21 22 23 24 24 25 25 26 26 27 27 28 28 29 29 28 27 27 27 27 28 29 29 28 27 27 27 27 27 27 27 26
14 15 16 16 16 17 18 18 18 19 20 21 22 23 24 24 25 26 26 26 26 27 27 28 28 28 28 27 27 27 27 28 28 29 28 28 27 27 27 27 27 27 26
Wind_Direction
280 279 278 275 270 268 273 277 278 278 280 283 287 290 289 287 287 290 293 295 297 298 296 296 297 297 298 298 298 297 298 298 297 296 292 289 288 287 286 285 284 282 280
285 282 280 278 276 277 278 282 280 279 282 285 288 291 291 290 291 296 297 298 299 299 298 298 298 298 299 299 299 299 299 298 299 297 294 292 291 290 288 287 285 283 281
289 289 285 279 279 283 284 287 286 286 287 292 295 296 295 294 296 301 301 302 301 302 303 302 302 300 300 301 302 303 302 301 301 299 296 294 293 292 290 287 286 284 283
291 287 285 286 288 291 292 294 292 292 294 297 300 302 302 303 304 306 307 307 306 305 306 305 306 305 304 304 305 305 305 305 303 302 300 298 295 293 291 289 286 284 284
296 295 293 297 294 295 296 297 299 295 294 298 304 307 309 311 311 310 312 312 312 310 310 310 311 310 310 309 308 307 307 307 305 304 303 300 298 295 293 291 289 286 285
313 303 300 305 301 298 301 306 307 302 301 304 305 308 312 314 315 315 315 315 314 314 315 316 315 313 313 313 311 311 310 310 310 309 308 305 302 298 295 293 291 288 286
327 318 307 306 307 308 309 312 313 311 311 311 312 314 314 315 317 317 317 318 319 319 319 320 320 319 317 315 314 314 314 314 313 312 310 309 305 303 298 295 294 293 291
324 325 317 309 310 310 309 311 315 318 320 319 319 320 321 322 321 320 320 322 322 322 322 323 324 322 321 319 317 316 317 316 314 313 312 310 307 305 302 299 295 294 293
330 326 324 323 318 312 313 316 320 321 323 322 323 325 325 326 325 324 324 325 324 324 326 328 328 326 324 323 321 321 320 318 316 315 314 313 310 308 305 303 300 297 294
330 329 330 329 326 322 322 325 327 326 328 330 330 331 330 330 330 329 328 329 328 328 329 330 331 330 329 328 326 325 323 322 320 318 316 314 313 310 308 306 303 301 299
334 332 332 333 334 336 335 333 334 336 336 335 334 333 332 334 334 333 332 331 331 331 331 331 331 331 331 330 328 327 325 323 322 320 318 316 315 313 311 308 306 304 303
349 345 341 345 341 336 339 339 338 339 340 338 337 336 335 334 334 333 333 332 333 334 334 333 332 333 333 332 331 329 328 326 325 323 322 320 318 316 314 311 309 308 307
355 355 350 347 346 344 344 343 341 340 339 340 339 338 336 335 335 335 335 336 336 335 334 333 334 334 333 333 333 332 330 329 328 327 326 325 323 321 319 317 314 311 309
358 355 353 353 353 351 349 349 346 342 341 340 337 337 338 338 338 338 338 339 339 338 337 336 337 336 336 336 336 334 333 332 332 331 330 328 327 325 323 321 318 315 313
359 354 354 355 353 350 343 342 343 343 342 341 341 339 337 338 339 339 339 340 341 341 340 339 339 338 337 337 337 337 336 334 334 334 333 333 332 330 328 325 322 320 317
354 354 354 351 349 347 343 339 337 337 339 339 338 338 339 340 340 341 341 341 342 341 341 341 340 339 339 339 340 340 339 338 337 335 335 335 335 334 332 330 328 325 322
342 344 345 343 341 342 341 339 336 335 337 337 337 338 340 340 341 341 341 340 340 340 340 340 340 339 339 340 340 341 341 341 341 340 338 337 336 335 334 333 331 327 325
335 336 337 336 334 333 335 335 334 332 333 334 337 338 339 340 339 340 340 339 339 339 339 340 340 341 341 341 341 342 344 344 343 342 342 342 340 338 337 337 336 334 332
332 334 334 332 331 329 331 333 334 333 333 335 336 338 339 339 339 339 339 339 339 338 338 339 340 340 341 342 343 345 346 347 347 346 345 345 344 343 342 341 340 338 337
330 332 331 330 330 328 329 331 333 334 334 335 337 337 338 339 339 340 340 340 339 340 341 341 341 341 342 343 344 346 347 348 349 349 348 348 348 347 347 346 345 343 342
325 326 327 328 328 328 329 330 331 332 333 333 333 334 336 337 338 340 340 340 340 341 342 343 343 343 344 345 345 346 348 349 350 351 351 351 351 351 351 350 348 347 346
322 325 326 327 327 328 328 330 331 332 333 332 330 330 332 334 336 338 339 339 340 340 342 343 344 344 344 346 347 347 348 350 351 352 352 352 352 353 353 353 352 351 350
316 321 322 324 325 327 327 327 330 332 333 334 333 333 332 333 335 338 339 341 341 341 342 343 344 345 345 346 347 348 349 350 351 353 354 354 355 355 355 355 356 355 354
310 315 318 320 321 323 324 324 327 330 332 333 334 334 334 334 335 338 340 341 342 342 344 345 346 346 347 347 348 349 350 351 351 351 351 353 354 355 355 356 356 356 356
305 310 314 318 319 320 321 322 324 327 330 332 333 334 335 335 336 337 339 342 343 344 345 346 347 348 348 348 348 349 351 352 352 352 352 353 353 354 356 356 356 356 357
304 308 311 313 316 318 319 321 323 325 327 330 332 334 335 336 336 336 338 341 343 344 345 347 348 348 349 349 349 349 350 351 352 353 354 355 354 355 356 357 357 357 358
Height
5766 5766 5766 5766 5767 5767 5767 5767 5767 5767 5767 5766 5765 5764 5763 5763 5761 5759 5758 5756 5754 5751 5749 5747 5744 5742 5739 5736 5733 5730 5727 5724 5722 5719 5716 5713 5710 5708 5705 5703 5701 5699 5698
5763 5763 5763 5763 5763 5764 5763 5763 5763 5763 5762 5762 5761 5760 5759 5757 5756 5754 5752 5750 5748 5745 5743 5741 5738 5735 5732 5729 5726 5722 5719 5716 5713 5711 5708 5704 5701 5698 5696 5693 5691 5689 5688
5761 5760 5760 5760 5760 5760 5760 5760 5760 5759 5759 5758 5756 5755 5754 5752 5751 5749 5747 5745 5742 5739 5737 5734 5731 5728 5726 5723 5719 5715 5712 5708 5705 5702 5699 5696 5692 5689 5687 5684 5682 5680 5678
5758 5758 5758 5758 5758 5758 5758 5757 5757 5756 5755 5754 5753 5751 5750 5748 5746 5744 5742 5740 5737 5734 5731 5729 5725 5722 5719 5716 5713 5709 5705 5701 5697 5693 5690 5687 5683 5680 5677 5675 5673 5671 5669
5757 5756 5756 5756 5756 5756 5755 5755 5754 5753 5752 5750 5749 5748 5747 5745 5743 5740 5738 5735 5732 5730 5727 5724 5720 5717 5713 5710 5706 5702 5698 5694 5689 5685 5681 5678 5675 5671 5668 5666 5663 5661 5659
5755 5755 5754 5754 5754 5753 5753 5752 5751 5750 5749 5748 5747 5745 5744 5742 5740 5737 5735 5732 5729 5726 5723 5719 5715 5711 5708 5704 5700 5696 5691 5686 5682 5677 5673 5669 5666 5662 5659 5656 5654 5651 5650
5754 5754 5753 5753 5753 5752 5751 5750 5749 5748 5747 5746 5744 5743 5741 5739 5737 5734 5732 5729 5726 5723 5719 5715 5711 5707 5703 5699 5694 5689 5684 5679 5674 5670 5665 5661 5657 5654 5650 5647 5644 5641 5638
5754 5753 5752 5752 5751 5751 5750 5749 5748 5746 5745 5744 5742 5741 5739 5736 5734 5731 5728 5725 5722 5719 5715 5711 5707 5703 5698 5693 5688 5683 5677 5672 5667 5662 5658 5653 5648 5644 5640 5637 5633 5631 5628
5753 5752 5751 5751 5750 5749 5749 5748 5746 5745 5743 5742 5741 5739 5736 5734 5731 5728 5725 5722 5719 5715 5711 5707 5703 5698 5693 5688 5682 5677 5671 5665 5659 5654 5649 5644 5639 5635 5630 5627 5623 5620 5618
5753 5752 5751 5750 5749 5748 5747 5746 5745 5744 5742 5741 5739 5737 5734 5731 5728 5725 5722 5719 5716 5712 5708 5703 5698 5693 5688 5682 5676 5670 5664 5659 5653 5647 5642 5636 5631 5626 5621 5617 5613 5610 5607
5753 5752 5751 5750 5749 5748 5746 5745 5744 5743 5741 5739 5737 5735 5732 5729 5726 5723 5720 5716 5713 5709 5704 5699 5694 5689 5683 5677 5670 5664 5658 5652 5646 5640 5634 5629 5623 5618 5613 5608 5604 5601 5597
5754 5753 5751 5750 5749 5748 5746 5745 5743 5742 5740 5738 5735 5733 5730 5727 5724 5720 5717 5713 5709 5705 5700 5695 5690 5684 5677 5671 5665 5658 5652 5645 5639 5633 5627 5621 5616 5610 5605 5600 5596 5592 5588
5754 5753 5752 5750 5749 5747 5746 5744 5743 5741 5739 5737 5734 5731 5728 5725 5721 5718 5714 5710 5706 5701 5696 5691 5685 5679 5673 5666 5659 5652 5646 5639 5633 5627 5621 5614 5608 5603 5598 5593 5589 5585 5581
5754 5753 5752 5750 5749 5747 5745 5744 5742 5741 5738 5736 5733 5730 5726 5723 5719 5715 5711 5707 5703 5697 5692 5687 5681 5675 5668 5661 5654 5647 5640 5634 5627 5621 5615 5608 5602 5597 5591 5587 5582 5578 5575
5755 5753 5752 5750 5748 5747 5745 5743 5742 5740 5737 5735 5732 5728 5725 5721 5717 5713 5709 5704 5700 5694 5689 5683 5677 5671 5664 5657 5650 5643 5636 5629 5622 5616 5609 5603 5597 5591 5586 5581 5577 5572 5568
5755 5753 5751 5749 5748 5746 5744 5743 5741 5739 5736 5733 5730 5727 5723 5719 5715 5710 5706 5701 5696 5691 5685 5679 5673 5667 5660 5653 5646 5639 5632 5625 5618 5611 5605 5599 5593 5587 5581 5576 5572 5567 5563
5754 5752 5750 5749 5747 5745 5743 5742 5739 5737 5734 5732 5729 5725 5721 5717 5712 5708 5703 5698 5693 5687 5682 5676 5669 5663 5656 5649 5642 5635 5628 5621 5614 5607 5600 5594 5588 5583 5577 5572 5567 5563 5558
5753 5751 5749 5748 5746 5744 5742 5740 5738 5735 5733 5730 5727 5723 5719 5715 5710 5705 5700 5695 5690 5684 5678 5672 5666 5659 5652 5645 5638 5631 5624 5617 5610 5603 5596 5590 5585 5579 5574 5569 5563 5559 5554
5751 5750 5748 5746 5744 5743 5741 5738 5736 5733 5731 5727 5724 5720 5716 5712 5707 5703 5697 5692 5686 5681 5675 5668 5662 5655 5648 5642 5635 5628 5621 5614 5607 5600 5594 5588 5582 5576 5571 5565 5560 5555 5551
5749 5748 5746 5745 5743 5741 5739 5737 5734 5731 5728 5725 5721 5718 5714 5709 5705 5700 5694 5689 5683 5677 5671 5665 5658 5651 5645 5638 5632 5625 5619 5612 5605 5598 5592 5586 5580 5574 5569 5563 5557 5552 5547
5748 5746 5745 5743 5741 5739 5737 5734 5732 5729 5726 5722 5719 5715 5711 5706 5702 5696 5691 5685 5680 5674 5668 5661 5655 5648 5641 5635 5629 5623 5616 5610 5603 5596 5590 5584 5578 5572 5567 5561 5555 5550 5545
5746 5744 5743 5741 5739 5736 5734 5732 5729 5726 5723 5720 5716 5712 5708 5703 5698 5693 5688 5682 5676 5670 5664 5658 5651 5645 5639 5633 5627 5621 5614 5608 5602 5595 5589 5583 5577 5571 5565 5559 5553 5548 5543
5743 5742 5740 5738 5736 5734 5731 5729 5727 5724 5721 5717 5713 5709 5704 5700 5695 5690 5685 5679 5673 5667 5661 5655 5649 5642 5636 5630 5624 5619 5613 5607 5601 5594 5588 5582 5576 5570 5564 5558 5553 5547 5542
5740 5739 5737 5735 5733 5731 5729 5726 5724 5721 5718 5714 5710 5706 5701 5696 5692 5687 5682 5676 5670 5664 5658 5653 5646 5640 5634 5628 5623 5617 5611 5605 5599 5593 5587 5581 5576 5569 5563 5558 5552 5547 5541
5737 5735 5734 5732 5730 5728 5726 5723 5721 5718 5714 5711 5707 5702 5698 5693 5688 5683 5678 5673 5668 5662 5656 5650 5644 5639 5633 5627 5621 5615 5610 5604 5598 5592 5586 5580 5575 5569 5563 5557 5552 5546 5541
5733 5732 5730 5728 5727 5725 5722 5720 5717 5714 5711 5707 5703 5699 5695 5690 5685 5680 5675 5670 5665 5660 5654 5648 5643 5637 5631 5625 5619 5614 5608 5603 5597 5591 5585 5579 5574 5568 5562 5557 5551 5546 5540